Location: Central Falls
(41.8900°N, 71.3929°W)
Time: 12:24:53
(UTC+00:00)

Courier 1B Rocket - Pass Details

Date: 11 December 2023
Orbit: 920 x 1202 km, 28.2° (Epoch: 01 March)

Event Time Altitude Azimuth Distance (km) Brightness Sun altitude
Rises 17:14:12 0° 252° (WSW) 3,829 8.5 24.6°
Reaches altitude 10° 17:17:36 10° 239° (WSW) 2,821 8.1 24.5°
Maximum altitude 17:22:41 23° 190° (S) 1,984 10.8 24.3°
Drops below altitude 10° 17:27:33 10° 141° (SE) 2,680 8.0 24.1°
Sets 17:30:41 0° 127° (SE) 3,592 8.3 24.0°
